#timestamp,LO_Frequency,Hit,StdDev 
1674720015.5,286046998.1,N
1674720035.4,286047000.2,N
1674720055.2,286047002.3,N
1674720075.0,286047001.6,N
1674720075.9,286047001.6,N
1674720095.8,286047000.7,N
1674720115.6,286046998.2,N
1674720135.5,286046997.8,N
1674720155.3,286046995.3,Y
1674720175.1,286046995.4,P
1674720195.9,286046998.0,N
1674720215.7,286046997.0,N
1674720235.6,286046998.8,N
1674720255.4,286046998.3,N
1674720275.2,286046999.6,N
1674720295.1,286047000.7,N
1674720326.0,286047002.5,E
1674720335.0,286047000.0,N
1674720335.9,286047000.0,P
1674720355.8,286047000.5,P
1674720375.6,286046999.0,Y
1674720395.4,286046999.6,P
1674720415.3,286046997.1,P
1674720435.1,286046998.0,N
1674720455.8,286046999.2,N
1674720475.7,286046997.4,N
1674720495.5,286046997.3,N
1674720515.4,286046999.2,N
1674720535.2,286046996.8,N
1674720555.0,286046996.3,Y
1674720555.9,286046996.3,P
1674720575.8,286046997.4,N
1674720595.6,286046999.6,N
1674720615.5,286046996.7,N
1674720635.3,286047000.9,N
1674720655.1,286047000.3,N
1674720675.9,286047002.8,N
1674720695.7,286047002.1,N
1674720715.5,286047002.0,N
1674720735.4,286047000.2,N
1674720755.2,286046998.3,N
1674720775.1,286046999.1,N
1674720776.0,286046999.1,N
1674720795.8,286046996.6,N
1674720815.6,286046998.9,N
1674720835.5,286047001.2,N
1674720855.3,286047000.4,N
1674720875.2,286047000.1,N
1674720895.9,286047000.1,N
1674720915.7,286047002.2,N
1674720935.6,286047004.1,N
1674720955.4,286047003.4,N
1674720975.2,286047003.0,N
1674720995.1,286047002.2,N
1674720996.0,286047002.2,N
1674721015.8,286047002.2,N
1674721035.7,286047002.5,N
1674721055.5,286047002.3,N
1674721075.3,286047002.7,N
1674721095.2,286046998.4,N
1674721115.0,286046997.3,N
1674721115.9,286046997.3,N
1674721135.8,286046999.0,N
1674721155.6,286046997.1,N
1674721175.4,286046998.8,N
1674721195.3,286046999.5,N
1674721215.1,286047001.1,N
1674721235.9,286047000.8,N
1674721255.7,286047002.7,N
1674721275.5,286047001.9,N
1674721295.4,286047001.1,N
1674721315.2,286046999.4,N
1674721335.1,286046999.4,N
1674721336.0,286046999.4,N
1674721355.8,286046999.4,N
1674721375.6,286046999.9,N
1674721395.5,286047000.9,N
1674721415.3,286046996.8,N
1674721435.1,286046996.5,N
1674721455.9,286047002.0,N
1674721475.7,286047000.1,N
1674721495.6,286047000.3,N
1674721515.4,286047002.6,N
1674721535.2,286047004.3,N
1674721555.1,286047002.6,N
1674721556.0,286047002.6,N
1674721575.8,286047002.0,N
1674721595.7,286047001.4,N
1674721615.5,286047003.4,N
1674721635.4,286047003.1,N
1674721655.3,286047000.2,N
1674721675.1,286047000.3,N
1674721695.8,286047000.2,N
1674721715.7,286047001.7,N
1674721735.5,286047000.3,N
1674721755.4,286047002.2,N
1674721775.2,286047002.8,N
1674721795.0,286047002.4,N
1674721795.9,286047002.4,N
1674721815.8,286047000.6,N
1674721835.6,286047001.6,N
1674721855.5,286047004.4,N
1674721875.3,286047005.8,Y
1674721895.1,286047003.5,P
1674721915.9,286047001.9,N
1674721935.7,286046999.7,N
1674721955.6,286046998.1,N
1674721975.4,286046998.5,N
1674721995.2,286046999.0,N
1674722015.1,286047000.7,N
1674722016.0,286047000.7,N
1674722035.8,286047002.7,N
1674722055.6,286047003.5,N
1674722075.5,286047004.3,N
1674722095.3,286047000.9,N
1674722115.2,286047000.4,N
1674722135.9,286046999.5,N
1674722155.7,286046997.1,N
1674722175.6,286046999.1,N
1674722195.4,286046998.8,N
1674722215.2,286046998.2,N
1674722235.1,286046996.8,N
1674722236.0,286046996.8,N
1674722255.8,286046996.1,N
1674722275.7,286046993.3,N
1674722295.5,286046995.9,N
1674722315.3,286046998.0,N
1674722335.2,286046995.4,N
1674722355.0,286046995.3,N
1674722355.9,286046995.3,N
1674722375.7,286046993.8,N
1674722395.6,286046992.2,N
1674722415.4,286046995.5,N
1674722435.3,286046993.7,N
1674722455.1,286046995.0,N
1674722456.0,286046995.0,N
1674722475.8,286046998.6,N
1674722495.7,286046998.2,N
1674722515.5,286046995.7,N
1674722535.3,286046995.4,N
1674722555.2,286046997.8,N
1674722575.0,286046996.8,N
1674722575.9,286046996.8,N
1674722595.8,286046996.8,N
1674722615.6,286046997.6,N
1674722635.4,286046999.6,N
1674722655.3,286047000.8,N
1674722675.1,286047002.3,N
1674722695.9,286047002.2,N
1674722715.7,286047001.7,N
1674722735.5,286047000.6,N
1674722755.4,286046997.4,N
1674722775.2,286046996.8,N
1674722795.0,286046997.0,N
1674722795.9,286046997.0,N
1674722815.8,286046995.3,N
1674722835.6,286046995.3,N
1674722855.5,286046996.9,N
1674722875.3,286046996.9,N
1674722895.1,286046996.4,N
1674722915.9,286046993.7,N
1674722935.7,286046996.0,N
1674722955.5,286046995.1,N
1674722975.4,286046995.8,N
1674722995.2,286046997.9,N
1674723015.1,286046997.0,N
1674723016.0,286046997.0,N
1674723035.8,286046997.1,N
1674723055.6,286046996.5,N
1674723075.5,286047000.6,N
1674723095.3,286047000.3,N
1674723115.1,286047000.4,N
1674723135.9,286046998.1,N
1674723155.7,286046999.2,N
1674723175.6,286046997.1,N
1674723195.4,286046996.5,N
1674723215.2,286047000.9,N
1674723235.1,286047001.2,N
1674723236.0,286047001.2,N
1674723255.8,286046999.3,N
1674723275.7,286046999.4,N
1674723295.5,286047000.4,N
1674723315.3,286046994.9,N
1674723335.2,286046998.8,N
1674723355.0,286046998.5,N
1674723355.9,286046998.5,N
1674723375.7,286046999.1,N
1674723395.6,286046996.2,N
1674723415.4,286046995.9,N
1674723435.3,286046995.1,N
1674723455.1,286046998.4,N
1674723475.8,286047000.8,N
1674723495.7,286047000.4,N
1674723515.5,286047002.1,N
1674723535.4,286046998.8,N
1674723555.2,286046996.6,N
1674723575.0,286046999.6,N
1674723575.9,286046999.6,N
1674723595.8,286046999.4,N
